Temperature
6 6 5 5 5 4 4 4 3 3 2 2 2 2 2 2 2 2 2 2 2 2 2 2 2 2 2 2 3 3 3 3 3 4 4 5 6 5 5 5 5 5 5
5 5 4 4 3 3 3 3 2 2 2 2 2 1 1 1 1 1 1 1 1 2 2 2 2 2 2 2 2 3 3 3 3 3 4 4 4 4 4 5 5 4 5
4 4 4 3 3 2 2 2 2 2 2 1 1 1 1 1 1 1 1 1 1 1 1 2 2 2 2 2 2 2 3 3 3 3 3 4 4 4 4 4 4 4 5
3 3 3 2 2 2 2 2 2 2 1 1 1 1 1 2 1 1 1 1 1 2 2 2 1 2 2 2 2 2 3 3 3 3 3 3 3 3 4 4 4 4 4
2 2 1 1 1 2 2 2 2 1 1 1 2 1 1 1 1 1 1 1 2 2 2 2 2 2 2 2 2 2 2 3 3 3 3 3 3 3 3 3 4 3 4
2 2 2 1 2 2 2 2 2 2 1 1 1 1 1 0 0 0 0 0 1 2 2 2 2 2 2 2 2 2 2 3 3 3 3 3 3 3 3 4 4 3 3
2 2 2 2 2 2 2 2 2 1 1 1 1 0 -0 -0 -1 -1 -1 -0 1 2 2 2 2 2 2 1 2 3 3 3 3 3 3 4 4 4 4 3 3 3 2
2 2 2 2 2 2 2 2 1 1 1 1 1 -0 -1 -1 -1 -1 -0 0 1 2 1 2 2 2 1 2 2 3 4 3 3 3 4 4 4 4 4 3 3 2 1
2 2 2 2 2 2 2 1 1 1 1 1 1 -0 -0 -1 -1 -1 -1 -0 0 1 1 2 2 1 1 1 2 3 3 3 3 3 4 4 4 4 4 3 2 2 -0
2 2 2 2 2 2 2 2 1 1 1 1 1 -0 -1 -2 -2 -2 -2 -1 -1 -0 1 1 2 1 1 1 1 2 3 3 3 3 3 3 3 3 3 3 3 2 -0
2 2 2 2 2 2 2 2 2 2 2 1 1 -1 -2 -2 -2 -2 -2 -2 -1 -1 0 1 1 1 1 0 1 1 2 3 3 3 3 2 2 2 2 2 2 2 0
3 3 3 3 3 2 2 2 2 1 2 2 1 -1 -2 -2 -3 -3 -3 -2 -2 -1 -0 1 1 1 1 -0 -0 0 1 2 3 3 2 1 1 2 2 2 1 1 -0
4 4 3 3 3 3 2 2 2 1 1 1 1 -1 -2 -3 -3 -3 -3 -3 -2 -2 -1 0 1 1 0 0 -0 -0 0 1 1 1 1 1 1 1 1 1 0 -0 -1
4 4 4 4 3 3 3 2 2 1 0 -0 -1 -1 -2 -3 -4 -4 -4 -3 -3 -2 -1 0 1 1 1 0 -0 -0 -0 -0 0 0 0 0 1 1 1 0 -0 -1 -1
4 5 4 4 4 4 3 2 1 -0 -1 -2 -2 -3 -3 -4 -4 -4 -4 -4 -3 -2 -2 -0 1 1 1 0 0 -0 -0 -0 -0 -0 -0 -0 -0 -0 -0 -1 -1 -1 -1
5 5 4 4 4 4 3 3 2 1 -0 -1 -2 -3 -4 -4 -4 -4 -4 -4 -3 -2 -2 -1 -0 0 1 1 0 0 -0 -0 -0 -0 -0 -0 -1 -1 -1 -1 -1 -1 -1
4 4 5 4 4 3 3 2 2 2 0 -1 -2 -3 -4 -4 -4 -5 -4 -4 -4 -3 -3 -2 -2 -1 0 1 0 0 -0 -0 -1 -1 -1 -1 -1 -1 -1 -1 -1 -1 -1
4 4 4 4 3 2 2 2 2 2 1 -0 -2 -3 -4 -4 -4 -4 -5 -4 -4 -4 -3 -3 -2 -1 -0 0 1 0 0 -0 -1 -1 -1 -1 -1 -1 -1 -1 -1 -1 -0
4 4 3 3 3 2 2 1 1 1 0 -1 -3 -4 -4 -4 -4 -4 -5 -5 -5 -4 -4 -3 -2 -1 -0 0 1 1 0 -0 -1 -1 -1 -1 -1 -1 -1 -0 -0 -0 0
4 3 3 3 2 2 1 1 1 0 -1 -2 -3 -4 -4 -4 -4 -4 -4 -4 -4 -4 -4 -3 -2 -1 -1 0 1 1 0 -0 -0 -1 -0 -0 -1 -1 -1 -0 -0 -0 -1
4 3 3 3 2 1 1 0 -0 -1 -2 -3 -4 -4 -4 -4 -4 -4 -4 -3 -4 -4 -3 -2 -2 -1 -1 -0 0 1 0 0 1 0 0 -0 -0 -1 -1 -1 -1 -1 -1
4 3 3 2 1 1 -0 -0 -1 -1 -3 -4 -4 -4 -4 -4 -3 -3 -3 -3 -3 -2 -2 -2 -1 -1 -1 -0 0 1 0 0 0 0 0 -0 -0 -0 -1 -1 -0 -1 -1
4 3 2 1 1 0 0 -1 -1 -2 -3 -4 -4 -4 -3 -3 -3 -3 -2 -2 -2 -2 -2 -2 -1 -1 -1 -0 -0 0 1 0 0 0 0 0 -0 -0 -0 -0 -0 -0 -0
3 3 2 1 1 0 -0 -1 -1 -2 -3 -3 -4 -3 -3 -3 -2 -2 -2 -2 -2 -2 -2 -1 -1 -1 -1 -0 0 1 1 0 0 1 1 0 -0 -0 -0 0 0 0 0
3 3 2 1 1 0 -0 -1 -2 -3 -3 -3 -3 -4 -3 -3 -2 -2 -2 -1 -2 -1 -2 -1 -1 -0 -0 -0 0 1 0 0 0 1 1 1 0 0 0 0 0 1 1
3 2 2 1 1 0 -0 -1 -2 -2 -3 -3 -3 -4 -3 -2 -2 -2 -2 -2 -1 -1 -1 -0 -0 -0 -0 -0 -0 0 0 0 0 0 1 1 0 0 0 0 0 1 1
Wind_Speed
11 12 13 15 16 16 15 15 14 13 13 13 13 13 13 14 13 12 11 12 12 12 12 12 13 12 9 9 10 10 10 10 12 11 11 10 9 4 3 7 6 3 6
13 15 16 16 16 15 14 14 13 13 13 12 13 13 13 12 12 12 11 12 13 14 14 13 14 11 11 10 9 10 9 10 11 11 9 9 9 3 5 8 6 5 6
15 16 16 16 16 16 15 15 14 12 11 12 13 14 14 14 12 10 11 13 13 13 13 13 13 13 12 11 11 10 9 8 8 9 9 6 3 3 7 7 8 6 8
16 15 15 14 14 14 14 13 13 12 12 14 15 15 15 14 11 12 13 15 16 16 16 10 13 13 13 14 12 11 10 10 9 9 8 5 2 4 7 7 8 7 8
13 12 12 11 11 13 13 13 12 13 13 14 14 14 13 11 11 15 16 18 17 16 13 10 12 16 20 18 14 12 10 9 9 8 7 6 5 7 6 5 9 8 10
8 9 9 11 12 13 14 14 12 12 13 13 13 14 13 9 16 21 19 18 18 17 12 10 14 16 18 22 24 22 18 13 10 9 8 6 7 8 8 9 10 6 5
10 12 10 12 14 14 12 11 11 12 13 13 14 14 13 11 16 20 25 19 16 14 11 11 12 13 18 16 21 22 19 18 14 9 8 7 9 11 11 9 8 9 8
9 10 11 11 12 12 11 11 12 12 13 13 13 11 11 10 16 21 26 17 12 11 10 11 12 14 16 19 17 12 9 9 11 8 5 8 10 12 12 13 15 15 12
11 11 10 9 9 10 11 11 11 12 13 14 14 13 14 12 15 20 22 15 13 12 10 11 14 15 18 21 15 10 2 6 8 10 12 14 17 20 20 16 14 15 12
11 8 7 7 8 9 11 11 12 12 12 13 13 12 13 14 16 20 21 15 13 13 10 12 16 19 18 18 13 11 7 6 11 14 17 18 17 18 18 14 13 14 15
7 6 5 6 8 10 11 11 11 12 12 12 12 13 14 15 17 19 20 17 15 14 12 11 12 21 17 15 13 11 11 9 13 15 14 13 12 12 13 11 9 11 12
5 6 7 8 9 10 12 11 10 12 12 12 12 12 12 13 16 18 20 19 16 14 10 10 13 19 14 12 11 14 15 10 9 11 12 11 11 11 12 13 11 10 12
7 8 9 9 9 11 12 11 10 12 13 13 14 11 11 13 15 18 17 19 17 15 12 15 18 16 13 8 12 14 12 9 8 10 11 11 11 13 15 15 15 14 14
10 10 10 8 7 10 9 10 11 11 14 15 16 14 13 14 16 17 16 16 17 14 12 15 16 14 13 10 7 9 9 9 9 10 11 12 13 13 13 14 14 12 11
10 9 9 9 9 10 10 7 8 8 8 11 13 15 14 14 16 17 15 14 14 14 11 10 10 10 10 10 7 8 8 10 10 10 10 11 12 13 12 12 12 13 13
10 11 9 9 10 11 12 8 3 4 6 4 7 12 13 12 14 17 18 16 17 18 9 9 10 10 10 10 8 7 8 9 9 10 10 11 12 12 13 12 13 13 14
10 11 10 10 11 12 12 13 11 2 7 6 10 14 14 14 14 15 18 17 12 14 10 9 9 10 9 9 8 5 7 9 9 9 10 10 11 12 12 12 14 14 15
9 7 10 11 11 12 12 12 12 12 11 11 13 14 15 14 13 16 15 14 12 12 10 10 9 10 9 9 8 6 6 9 10 9 8 10 11 11 11 13 14 15 15
11 11 11 10 11 11 12 12 12 13 12 13 14 15 16 13 11 15 14 12 11 10 10 9 9 9 9 9 8 6 5 9 11 9 10 10 10 10 10 13 14 13 14
9 10 10 11 11 12 12 13 13 13 14 13 13 14 15 14 13 13 12 11 10 10 9 9 9 8 9 9 8 7 6 7 10 10 9 9 9 8 10 13 14 13 12
10 9 9 11 12 13 12 13 13 13 14 13 12 14 16 13 12 13 12 11 10 9 9 8 8 8 8 8 8 7 5 4 5 10 10 9 8 8 9 11 11 13 13
9 10 11 12 12 12 12 13 14 14 14 14 13 14 17 13 12 12 11 10 10 8 8 7 7 7 7 7 7 6 5 5 6 6 8 8 9 11 11 11 12 12 13
10 11 12 12 12 12 13 13 14 14 14 13 13 13 13 12 11 11 11 10 10 8 8 7 7 8 7 6 5 4 3 3 5 8 9 10 10 12 11 11 13 14 14
10 11 11 11 11 12 13 13 14 15 14 13 13 13 12 11 11 12 12 11 10 9 10 10 8 8 9 9 8 6 4 4 3 5 12 12 12 12 11 11 12 15 15
11 11 11 12 12 12 13 14 15 15 13 13 13 12 12 12 12 12 12 11 10 10 11 12 12 12 13 12 10 10 11 10 6 6 11 12 13 12 11 11 12 13 15
11 11 11 11 12 12 13 14 14 14 12 12 12 12 12 12 12 13 12 13 12 11 12 13 15 16 16 15 14 15 14 13 12 9 9 11 13 12 11 10 14 13 14
Wind_Direction
344 340 335 331 327 322 315 314 316 320 322 327 327 320 316 311 306 299 295 300 304 300 295 291 288 286 280 274 266 260 257 253 259 260 263 274 288 279 115 105 88 67 39
336 330 327 324 321 319 320 325 330 328 328 320 311 327 328 315 312 311 309 307 304 299 297 293 286 282 275 271 265 261 259 254 254 261 265 276 269 211 147 114 88 51 34
329 327 327 330 333 334 336 334 324 314 309 308 321 319 313 310 304 302 303 299 291 286 286 291 299 294 281 277 269 258 253 252 249 251 252 253 220 158 128 106 78 45 24
338 339 348 354 345 335 327 313 306 307 309 314 316 316 318 320 330 330 311 295 291 291 291 291 293 294 284 280 278 268 251 239 235 240 240 228 177 145 139 121 95 62 43
353 354 354 340 325 316 316 318 320 322 325 324 330 335 337 340 360 341 324 314 309 303 303 312 296 294 296 299 296 285 266 238 223 222 223 207 170 156 143 128 112 96 55
343 344 344 334 326 325 328 336 341 350 350 347 348 344 341 348 3 343 333 318 308 309 314 319 311 306 306 306 300 290 275 251 220 210 217 194 163 150 135 142 131 119 78
355 352 346 334 335 339 343 357 2 357 354 350 349 353 346 5 6 344 333 317 304 305 328 330 315 317 313 309 302 288 268 248 224 212 215 175 161 148 138 134 109 97 102
343 343 340 349 353 3 8 2 354 350 352 350 353 357 351 19 14 354 336 323 322 337 354 332 325 323 321 323 313 293 250 219 203 203 203 161 147 141 128 117 108 104 97
349 355 356 0 4 10 7 2 356 349 356 355 355 0 359 3 11 356 343 338 347 341 346 341 338 330 329 333 335 332 244 159 134 112 100 110 120 124 123 119 119 116 108
10 12 5 3 3 2 356 354 352 349 358 355 358 9 6 356 1 356 347 346 347 336 345 348 341 334 334 346 360 5 30 99 111 96 94 96 104 112 113 119 128 123 124
27 26 12 2 353 356 349 350 348 348 351 351 3 7 359 353 355 353 345 349 349 339 349 342 335 332 341 355 13 27 29 69 101 103 104 104 103 102 103 103 112 123 129
6 357 350 349 349 351 343 344 348 353 348 353 5 4 350 352 351 352 341 339 347 343 354 345 335 334 353 16 29 35 33 49 90 103 106 105 105 105 103 102 101 98 113
331 337 338 339 349 347 353 355 359 1 355 360 359 6 355 354 353 351 345 340 352 351 358 351 344 345 359 31 44 43 41 48 73 91 99 101 102 105 103 102 104 110 118
321 332 333 331 342 345 1 2 2 9 0 1 357 1 359 357 360 353 351 351 353 354 354 352 352 356 8 13 53 70 67 63 67 83 94 100 103 104 105 113 117 120 120
334 334 344 347 353 352 0 6 5 27 21 11 8 2 2 358 356 351 352 355 353 344 350 0 1 7 7 3 40 77 80 81 79 82 89 98 103 107 110 116 118 117 112
3 9 14 1 4 3 359 9 83 118 118 76 55 27 7 5 347 351 353 348 350 341 0 15 4 5 7 4 18 67 83 90 92 95 98 102 108 115 121 123 121 118 118
16 8 8 11 7 4 1 0 359 66 126 89 63 39 5 353 353 353 352 341 7 2 11 22 11 2 3 3 2 30 80 91 97 99 107 113 118 123 125 125 124 124 123
11 13 6 12 12 3 2 3 1 357 8 6 33 24 359 358 7 356 354 354 16 20 11 12 12 4 1 2 1 20 86 98 98 101 100 111 121 124 126 128 129 132 133
23 16 5 13 15 6 8 9 9 5 13 13 10 5 359 359 25 5 3 13 8 10 5 5 8 3 0 1 1 19 72 103 111 99 93 98 106 117 123 124 125 124 124
50 34 359 16 18 15 16 15 13 11 18 21 13 8 1 4 11 12 8 8 6 6 3 2 1 2 0 3 8 22 59 92 119 118 107 104 108 110 116 123 126 123 112
33 37 19 25 26 22 19 19 18 21 26 21 17 19 1 7 10 11 7 2 1 0 360 357 355 355 358 3 12 20 45 80 96 120 122 119 119 121 127 129 126 123 124
36 36 33 32 31 28 24 27 23 27 31 24 14 14 10 11 11 8 0 355 355 354 352 351 347 351 356 359 6 10 28 94 104 102 114 130 137 133 134 134 134 129 132
41 42 44 37 33 30 31 34 33 31 33 25 17 13 11 6 1 356 352 351 351 350 348 350 355 0 359 346 349 10 29 78 140 151 146 135 130 132 139 140 137 136 140
48 47 46 45 37 36 34 35 39 41 35 24 18 14 7 360 355 353 353 352 353 355 358 0 1 2 2 3 16 38 70 101 124 126 128 125 131 138 144 141 140 140 146
52 49 48 45 39 38 39 38 40 44 37 25 18 14 10 5 359 356 355 356 356 360 2 6 7 7 11 20 38 65 86 86 61 85 122 125 128 133 138 135 137 142 148
55 53 51 48 44 40 40 41 41 44 41 30 23 19 13 6 2 1 360 1 3 7 9 11 12 17 21 32 52 66 73 70 61 62 105 125 130 133 136 137 136 145 145
Height
1534 1529 1525 1521 1517 1513 1509 1505 1500 1496 1492 1488 1483 1479 1474 1469 1465 1462 1459 1456 1453 1449 1446 1442 1438 1434 1431 1428 1425 1423 1420 1419 1417 1417 1418 1418 1417 1417 1415 1414 1414 1414 1411
1530 1526 1522 1517 1512 1508 1504 1499 1495 1492 1488 1484 1480 1476 1471 1467 1462 1458 1455 1452 1449 1444 1441 1437 1432 1428 1425 1422 1418 1415 1413 1412 1411 1410 1410 1410 1410 1411 1411 1411 1411 1412 1408
1527 1522 1517 1511 1507 1502 1499 1494 1491 1487 1484 1481 1478 1474 1469 1465 1461 1456 1451 1447 1443 1439 1435 1431 1426 1422 1418 1415 1411 1408 1405 1404 1403 1403 1403 1404 1403 1405 1407 1407 1408 1408 1406
1521 1516 1511 1507 1503 1500 1496 1492 1489 1486 1483 1480 1477 1472 1467 1463 1459 1454 1449 1444 1440 1436 1431 1426 1421 1416 1412 1408 1404 1400 1398 1396 1395 1396 1397 1399 1400 1401 1402 1403 1405 1406 1406
1518 1514 1510 1507 1503 1499 1496 1493 1489 1485 1482 1478 1474 1469 1464 1460 1454 1450 1444 1440 1435 1431 1427 1421 1416 1411 1407 1402 1396 1392 1390 1388 1388 1389 1391 1393 1394 1396 1399 1401 1403 1405 1405
1517 1514 1511 1507 1503 1500 1496 1492 1488 1485 1481 1477 1472 1467 1462 1458 1452 1447 1441 1435 1431 1427 1422 1416 1410 1405 1399 1393 1386 1381 1380 1380 1381 1383 1386 1388 1390 1393 1397 1400 1402 1404 1406
1516 1514 1511 1506 1503 1499 1496 1493 1489 1485 1480 1475 1470 1465 1461 1456 1451 1444 1436 1429 1427 1424 1419 1412 1406 1400 1392 1384 1375 1369 1368 1370 1374 1378 1380 1383 1386 1389 1395 1398 1401 1405 1407
1516 1513 1510 1507 1504 1500 1497 1494 1489 1485 1480 1475 1470 1465 1460 1455 1448 1441 1433 1427 1425 1421 1415 1409 1403 1395 1386 1377 1368 1362 1362 1364 1368 1373 1377 1380 1384 1389 1394 1398 1401 1405 1410
1517 1513 1511 1508 1505 1502 1498 1494 1489 1485 1480 1475 1470 1464 1459 1454 1447 1440 1432 1427 1423 1419 1413 1407 1401 1393 1384 1374 1365 1360 1359 1361 1366 1371 1375 1379 1383 1387 1391 1397 1402 1405 1411
1517 1513 1511 1509 1506 1503 1499 1494 1489 1485 1480 1475 1470 1464 1458 1453 1446 1439 1432 1428 1422 1417 1412 1406 1400 1393 1384 1375 1366 1361 1360 1361 1364 1370 1375 1378 1383 1388 1394 1399 1403 1407 1412
1518 1515 1512 1509 1506 1503 1498 1494 1489 1484 1480 1475 1470 1464 1458 1452 1445 1439 1432 1428 1422 1417 1411 1405 1399 1393 1386 1378 1372 1367 1364 1365 1367 1371 1375 1379 1384 1390 1397 1404 1408 1411 1414
1519 1516 1513 1510 1506 1502 1497 1493 1489 1484 1479 1474 1469 1463 1457 1451 1445 1438 1432 1427 1422 1417 1412 1405 1399 1394 1389 1382 1377 1374 1370 1369 1371 1374 1378 1382 1388 1394 1401 1406 1411 1416 1420
1520 1517 1513 1509 1506 1502 1498 1493 1489 1485 1480 1475 1469 1463 1456 1451 1444 1438 1432 1426 1422 1418 1413 1407 1402 1397 1392 1387 1382 1379 1377 1375 1376 1378 1382 1388 1393 1398 1404 1410 1415 1421 1427
1519 1516 1513 1510 1506 1502 1498 1494 1490 1485 1480 1475 1469 1463 1457 1450 1443 1436 1431 1426 1422 1417 1413 1409 1404 1400 1396 1392 1389 1385 1383 1383 1383 1386 1389 1393 1398 1403 1409 1414 1419 1426 1431
1518 1516 1512 1509 1506 1502 1498 1493 1490 1484 1479 1475 1470 1464 1457 1450 1444 1438 1432 1426 1422 1418 1416 1411 1406 1404 1400 1397 1395 1392 1391 1391 1392 1394 1396 1399 1403 1408 1414 1419 1425 1431 1435
1519 1516 1512 1509 1505 1502 1498 1493 1488 1485 1480 1474 1469 1464 1458 1453 1446 1440 1433 1428 1423 1420 1418 1414 1410 1407 1406 1404 1401 1400 1399 1399 1399 1401 1403 1406 1410 1414 1419 1426 1431 1436 1440
1519 1516 1514 1510 1506 1502 1498 1494 1491 1486 1481 1477 1471 1465 1459 1453 1447 1441 1434 1429 1426 1422 1421 1419 1415 1412 1411 1410 1409 1407 1407 1406 1407 1408 1411 1414 1417 1421 1427 1432 1437 1441 1447
1521 1518 1515 1512 1508 1504 1500 1496 1492 1488 1484 1480 1473 1466 1460 1455 1449 1442 1437 1433 1430 1426 1424 1422 1420 1417 1416 1415 1414 1414 1414 1413 1414 1416 1419 1422 1425 1429 1433 1438 1443 1448 1453
1522 1519 1516 1513 1509 1505 1502 1498 1493 1489 1485 1480 1474 1468 1463 1457 1452 1446 1441 1437 1433 1431 1428 1426 1425 1422 1421 1420 1420 1420 1421 1420 1421 1423 1426 1429 1432 1436 1440 1444 1449 1454 1458
1525 1521 1518 1515 1512 1508 1504 1500 1496 1492 1486 1481 1476 1471 1465 1460 1455 1450 1445 1441 1438 1435 1432 1431 1429 1428 1426 1426 1425 1425 1426 1427 1429 1430 1433 1436 1439 1442 1445 1450 1454 1458 1461
1528 1525 1521 1518 1514 1510 1507 1503 1499 1494 1489 1484 1480 1475 1469 1464 1460 1455 1450 1445 1442 1439 1437 1435 1434 1433 1432 1431 1430 1430 1432 1433 1435 1437 1439 1441 1444 1448 1451 1454 1458 1462 1465
1530 1528 1524 1521 1517 1513 1510 1507 1502 1497 1492 1487 1482 1478 1473 1468 1464 1459 1455 1450 1447 1444 1442 1440 1439 1438 1437 1436 1435 1435 1436 1437 1440 1442 1443 1446 1449 1452 1455 1459 1463 1466 1469
1533 1530 1527 1524 1521 1517 1514 1511 1506 1501 1496 1490 1486 1482 1477 1473 1469 1464 1460 1456 1452 1449 1447 1445 1444 1443 1442 1440 1439 1439 1440 1441 1444 1447 1448 1450 1453 1455 1459 1463 1466 1469 1473
1536 1533 1531 1528 1525 1522 1518 1515 1511 1505 1499 1495 1490 1486 1482 1478 1473 1469 1464 1461 1458 1455 1452 1450 1449 1447 1445 1444 1443 1443 1444 1446 1449 1452 1454 1455 1457 1460 1463 1467 1470 1474 1477
1539 1537 1535 1532 1529 1526 1523 1520 1516 1511 1505 1500 1495 1491 1487 1483 1478 1475 1470 1467 1464 1461 1459 1456 1455 1453 1450 1449 1448 1449 1450 1452 1454 1456 1459 1460 1462 1465 1468 1471 1474 1478 1482
1543 1541 1539 1536 1533 1530 1527 1525 1521 1516 1511 1506 1502 1498 1493 1489 1485 1481 1477 1474 1471 1468 1465 1463 1461 1459 1457 1456 1455 1456 1457 1459 1460 1461 1463 1465 1467 1469 1471 1475 1478 1481 1485